RH
14 14 16 16 18 20 22 23 22 20 21 20 14 12 10 11 11 11 11 11 10 11 12 12 13 12 10 11 10 13 13 12 12 12 12 11 11 22 24 22 22 17 15 13 8
26 25 24 23 23 21 20 20 20 21 19 19 20 13 11 11 12 15 17 16 14 13 13 14 15 14 16 13 15 17 20 18 16 15 11 9 9 12 22 24 22 19 18 21 17
27 27 27 25 26 25 23 22 21 18 20 23 18 14 15 16 19 19 18 18 18 17 18 18 20 21 22 22 24 26 26 24 21 15 11 10 9 8 14 18 14 6 7 11 21
29 30 31 28 27 23 22 22 24 25 23 20 17 17 18 18 18 16 16 15 14 15 15 19 21 22 24 26 26 26 23 22 19 19 15 13 12 8 8 11 6 5 6 6 9
32 36 38 33 30 28 20 19 19 19 19 18 18 18 15 14 14 12 13 13 14 15 17 19 20 21 22 23 24 26 25 24 23 22 18 13 12 10 8 6 6 6 7 7 8
34 35 38 35 32 29 22 18 16 16 17 16 15 14 13 11 11 10 9 10 13 15 18 19 20 22 23 25 27 28 28 27 26 23 20 14 11 9 6 6 6 6 6 7 8
36 36 39 34 31 27 24 20 18 18 18 17 14 13 11 11 10 9 9 8 10 12 16 19 22 24 25 27 28 31 32 31 29 26 23 16 14 12 10 6 7 8 7 8 9
38 40 37 34 29 25 24 22 20 20 20 19 17 14 13 13 12 10 9 9 10 10 12 18 22 25 28 28 28 28 31 32 32 29 24 20 16 13 11 9 9 9 9 9 9
41 42 39 36 32 30 29 26 25 23 24 21 20 18 15 13 11 10 10 10 11 10 12 18 24 29 30 28 26 27 30 32 34 32 30 29 25 18 12 10 11 11 12 13 12
44 45 43 39 36 34 33 32 31 28 26 25 20 21 17 12 12 11 11 11 11 10 13 20 25 29 30 29 27 25 30 34 36 35 38 36 34 25 19 15 13 15 17 17 16
51 50 47 43 39 34 29 24 22 18 22 24 19 17 15 13 12 12 13 12 11 12 16 24 28 30 29 27 24 22 25 28 36 37 40 40 36 29 24 21 18 18 21 21 19
51 48 46 45 41 39 35 29 24 21 19 20 18 17 15 14 14 13 13 13 11 14 22 28 30 29 28 23 22 22 26 33 37 39 42 42 36 33 31 28 23 24 26 25 22
50 48 47 45 42 40 36 34 31 28 25 22 19 17 16 15 15 14 14 12 11 16 25 30 30 30 28 23 22 20 24 31 31 45 42 45 43 41 38 36 32 30 30 30 29
49 48 46 46 44 41 39 37 36 33 28 25 23 22 19 16 17 15 14 12 12 19 27 32 32 29 22 18 16 15 16 22 34 41 45 44 48 46 42 39 40 38 36 36 35
52 49 47 46 44 45 42 40 38 36 31 27 24 21 19 18 16 17 15 11 15 24 32 32 32 22 13 14 12 11 12 16 33 47 47 47 51 51 47 46 44 41 37 35 36
40 43 46 48 48 48 48 45 42 41 37 29 25 23 21 19 20 18 16 13 21 30 36 32 22 14 14 12 11 10 12 14 21 38 50 52 52 54 55 53 49 46 47 45 45
38 38 37 38 40 42 44 44 48 46 38 33 28 25 22 22 22 22 16 18 29 36 36 19 14 16 15 14 14 14 13 14 15 28 45 50 50 52 54 55 52 53 53 52 54
36 36 34 33 34 36 38 44 45 42 39 34 32 28 25 25 26 23 17 25 33 35 31 17 20 20 19 18 16 17 16 19 20 23 34 57 54 53 55 54 59 54 54 56 61
37 35 32 30 30 32 33 36 40 39 36 35 31 29 28 30 30 24 22 32 41 40 29 22 31 26 22 22 22 22 20 20 23 22 25 35 52 56 59 58 60 54 50 55 63
37 37 36 32 30 31 33 33 35 36 34 34 32 32 33 35 31 24 29 42 46 44 35 38 35 31 29 26 28 29 25 26 28 33 31 30 50 61 64 61 61 57 53 63 69
37 37 36 34 34 35 34 36 35 34 35 36 36 37 38 37 28 27 46 50 53 50 50 48 39 38 35 27 30 36 33 33 34 41 45 34 36 69 72 66 59 56 63 69 76
31 34 37 39 38 36 35 38 39 41 40 42 44 44 42 35 28 40 56 66 62 63 58 54 46 36 37 36 31 33 38 37 32 33 34 46 31 79 70 61 57 62 68 68 69
33 35 38 41 42 44 45 48 50 52 52 48 48 46 40 33 34 52 63 72 74 70 64 59 56 45 44 40 34 37 48 52 40 39 46 53 58 79 75 66 63 80 78 81 83
31 35 40 41 44 47 52 58 60 60 58 58 55 49 40 40 50 61 72 76 83 78 72 66 62 64 61 54 46 44 51 61 47 46 42 46 36 63 78 69 79 82 86 85 77
36 38 42 45 50 56 60 66 72 68 66 63 57 47 45 54 62 72 77 83 82 85 83 78 71 70 62 59 54 50 48 57 60 59 52 46 37 53 51 59 62 62 72 76 72
40 43 48 53 59 61 69 76 76 77 72 65 55 50 62 78 72 73 74 89 84 88 96 88 82 79 61 69 67 58 57 58 57 59 54 58 48 75 63 53 41 48 55 59 64
66 70 62 63 73 76 79 79 77 75 68 62 59 60 75 79 76 80 85 88 91 85 88 84 90 87 67 81 70 55 59 58 58 64 68 58 69 53 36 30 27 38 54 67 64
Wind_Speed
12 11 10 9 9 9 9 9 10 12 14 14 15 17 17 19 20 20 20 19 19 19 20 20 21 23 22 23 21 22 22 22 22 22 20 18 18 12 13 13 15 18 20 22 23
17 17 18 17 17 16 15 15 15 15 15 16 17 19 19 19 20 21 22 20 19 18 19 21 22 22 22 21 21 21 22 22 22 23 22 20 19 16 13 12 13 15 18 20 23
21 22 22 22 20 18 18 17 16 16 16 15 17 19 20 19 19 20 19 19 19 19 19 20 22 23 22 21 21 21 21 22 22 22 22 22 21 18 13 13 14 16 17 18 20
21 21 21 21 21 21 19 18 17 16 16 16 17 18 18 17 20 19 18 18 19 19 21 22 24 25 25 22 21 22 22 22 21 23 23 23 22 17 13 12 14 17 18 19 20
18 18 18 18 19 20 21 22 21 20 19 18 18 18 19 21 22 20 19 19 20 21 22 24 25 26 25 25 24 24 23 23 23 23 23 22 20 17 13 11 12 17 18 20 20
15 15 17 17 17 18 19 21 21 20 20 20 20 20 21 21 19 18 20 21 19 20 22 24 26 26 25 25 24 26 26 26 25 24 24 21 21 16 14 12 13 16 19 20 20
13 12 14 15 16 16 17 18 19 18 19 18 18 17 17 19 18 18 21 21 21 22 23 25 28 27 27 28 27 25 24 25 24 23 24 23 21 19 17 14 15 15 18 21 22
10 11 12 14 15 15 16 15 15 14 15 16 16 15 16 16 17 19 20 22 24 24 24 27 29 30 27 26 28 30 27 26 25 25 24 23 21 20 17 14 15 14 17 19 23
9 9 10 12 11 12 12 12 12 12 13 13 13 13 14 15 17 19 20 23 25 25 25 27 29 29 25 27 30 31 32 31 28 24 21 23 21 20 16 14 14 14 15 19 22
6 6 7 9 10 9 9 9 9 10 10 11 11 12 14 14 17 18 21 23 26 26 26 28 29 29 28 28 29 31 32 33 30 25 25 22 21 20 18 15 15 15 16 18 20
4 4 5 6 7 8 8 9 10 11 10 10 13 13 14 16 18 20 22 23 25 25 25 29 30 29 28 30 32 33 33 33 33 28 26 21 19 18 18 18 17 17 16 16 17
3 4 4 4 5 5 7 9 10 12 14 12 14 15 16 18 19 20 22 24 24 24 26 30 30 29 31 34 34 35 34 33 30 32 27 23 20 19 19 18 16 15 17 18 18
1 1 3 4 5 7 8 8 10 11 15 14 16 16 18 20 21 22 24 26 24 25 30 34 31 29 32 34 36 37 35 34 31 29 27 24 20 20 19 20 18 17 20 20 20
5 5 5 6 7 8 10 11 12 13 16 16 17 18 19 19 21 23 25 26 24 26 33 34 30 31 33 36 36 37 37 35 33 30 27 25 20 23 18 21 22 21 21 21 22
11 10 10 10 10 12 13 15 16 18 19 18 19 20 21 21 22 24 27 26 24 28 33 31 30 32 35 34 36 37 40 39 35 29 29 26 23 22 19 21 20 20 21 21 23
15 16 16 16 16 16 17 18 19 20 21 21 20 21 23 23 24 27 27 24 24 30 31 29 31 33 33 35 37 40 39 41 40 36 29 27 26 24 24 26 24 23 22 22 24
15 16 18 19 20 21 21 22 23 23 23 24 24 25 25 25 26 27 28 26 27 30 29 29 32 34 34 37 38 39 42 42 44 40 31 27 27 29 30 31 32 30 25 24 26
18 19 20 20 20 21 23 24 25 26 27 27 28 27 27 27 28 30 28 26 30 33 32 28 34 37 39 39 42 41 43 43 43 40 33 27 27 29 32 33 35 34 30 28 30
22 21 22 22 23 23 23 25 26 26 28 29 30 30 30 31 32 32 29 29 31 34 32 35 35 36 39 40 41 42 43 43 42 39 37 32 27 29 33 35 38 35 36 32 35
25 24 25 25 25 26 25 27 27 28 29 30 31 31 33 34 36 34 31 32 34 33 35 38 38 37 41 43 40 40 41 41 41 40 36 36 27 24 33 36 39 39 38 36 39
27 28 28 28 28 28 28 30 30 31 32 32 33 34 36 37 37 34 33 34 36 35 37 39 40 39 41 42 43 40 38 40 40 39 38 38 33 29 35 37 41 39 41 41 44
30 30 31 30 29 30 31 31 33 34 35 35 36 37 38 38 36 35 36 38 38 37 39 41 41 42 41 44 47 43 39 40 41 42 39 38 32 31 37 42 42 42 45 48 50
34 33 33 33 33 34 35 35 35 37 38 39 40 40 41 39 38 38 40 40 39 40 41 44 44 46 47 46 48 44 40 39 41 40 35 40 34 33 38 43 44 44 47 50 51
39 38 38 38 39 39 39 39 40 40 41 41 42 44 43 39 40 42 43 43 41 42 42 45 45 44 47 45 47 44 39 37 41 39 38 34 36 32 39 44 44 47 49 50 52
44 43 43 43 43 43 43 42 42 44 45 45 43 44 43 42 45 44 45 44 45 47 46 47 48 48 49 47 50 49 38 38 39 35 39 33 38 36 39 43 45 45 47 50 52
48 46 46 46 46 46 45 44 46 46 47 47 45 46 44 42 48 50 51 49 50 51 50 51 51 51 54 49 51 49 38 38 37 36 39 40 38 41 42 42 43 46 48 51 55
48 49 50 49 47 48 48 49 49 50 50 48 46 48 46 48 50 51 53 52 53 54 55 58 56 55 57 55 53 49 43 39 36 39 43 43 43 43 41 43 45 51 53 55 57
Wind_Direction
96 88 84 82 79 79 81 79 79 78 78 69 60 57 61 60 57 52 45 38 33 26 18 15 12 9 5 1 357 355 351 351 348 340 335 329 327 331 312 323 323 323 320 316 306
89 88 87 85 83 81 80 82 84 84 79 71 60 58 62 62 53 43 37 31 28 23 18 16 11 8 6 4 359 357 351 348 345 343 336 327 326 324 316 316 323 322 324 314 305
89 85 85 83 81 82 82 81 83 82 79 69 65 64 61 56 49 41 41 37 36 32 25 20 14 9 5 2 355 357 354 349 347 348 343 334 325 323 315 320 333 336 338 326 312
90 87 82 81 79 77 78 79 81 84 79 72 67 61 55 51 50 48 47 44 39 35 28 20 15 10 5 7 3 5 359 358 353 350 344 337 329 326 323 335 346 350 351 342 335
91 84 76 79 79 74 75 76 77 77 77 73 68 64 59 55 50 47 42 38 35 31 25 19 14 12 9 9 7 5 360 357 352 348 348 340 335 324 323 340 349 357 354 348 344
92 83 75 78 79 77 76 76 76 77 78 74 67 61 55 53 46 39 31 28 26 23 22 19 15 12 10 13 10 5 0 354 353 348 349 344 340 329 316 326 340 350 353 349 350
90 78 72 71 79 79 80 78 76 76 70 65 61 56 52 44 36 31 24 22 20 15 15 16 15 11 12 11 9 10 3 356 351 345 349 346 338 326 318 318 326 340 344 348 350
87 80 74 72 80 80 76 72 70 64 59 56 50 45 41 34 27 24 20 19 14 10 9 10 11 12 11 9 8 7 5 3 358 353 350 344 337 332 327 315 322 331 340 343 347
89 85 74 71 77 72 68 65 58 50 45 43 37 31 27 22 19 15 15 14 9 8 9 7 6 8 7 10 7 2 360 2 1 350 349 340 338 335 334 321 321 325 332 339 340
92 92 83 68 67 66 58 47 37 30 26 25 19 16 14 13 12 7 10 8 7 6 6 2 2 4 7 5 3 2 360 354 357 350 344 339 336 335 329 323 317 320 330 335 337
107 90 72 71 61 50 38 32 20 13 6 2 5 2 1 2 1 3 4 4 4 4 1 358 357 360 2 1 359 0 357 355 349 349 343 340 334 330 328 327 318 318 322 326 328
107 80 56 46 33 19 14 10 4 359 356 352 352 353 352 353 354 354 356 357 358 359 357 354 354 355 357 356 356 356 353 351 349 344 340 339 330 328 323 320 314 312 314 318 323
188 333 328 335 346 351 346 349 346 344 348 344 342 342 343 344 344 345 348 350 351 351 353 351 350 351 352 354 351 351 349 347 347 340 337 332 327 323 314 310 304 305 309 311 313
267 272 280 293 307 312 322 329 335 333 337 336 331 331 333 333 335 339 342 344 344 347 347 346 348 348 347 349 350 349 348 346 343 342 335 323 325 321 309 303 300 304 308 311 315
266 268 273 280 292 301 309 316 323 326 326 327 325 325 327 326 329 334 337 338 341 343 343 344 343 344 344 348 350 350 348 346 340 339 334 324 317 314 308 304 300 302 306 309 312
276 278 279 284 288 292 299 305 310 316 319 317 319 320 321 323 327 329 332 333 336 339 339 338 338 340 344 348 351 350 347 344 342 338 336 324 313 312 311 306 304 303 305 309 313
283 286 288 288 285 289 294 300 305 308 313 314 317 318 318 319 322 327 328 329 331 331 331 337 339 342 344 345 348 348 346 344 343 338 338 329 318 310 310 306 303 311 305 302 307
280 284 288 289 290 292 292 295 299 305 309 312 314 314 313 316 321 323 321 320 325 327 326 334 339 340 341 342 344 346 345 343 341 337 338 329 320 310 305 304 303 308 308 308 313
277 281 283 287 289 290 293 295 298 302 305 309 311 311 312 315 317 318 315 317 321 322 322 328 338 337 338 340 342 345 344 340 339 338 336 331 326 316 303 302 305 307 310 313 312
280 283 286 288 288 289 290 291 294 299 302 305 306 307 309 312 314 313 312 314 318 320 321 327 333 336 336 337 339 342 339 336 336 329 330 327 328 313 301 303 303 306 311 310 309
277 283 287 289 290 290 291 293 295 297 299 301 303 305 307 309 310 308 308 311 314 316 320 323 327 333 333 334 335 337 334 332 328 322 321 321 326 310 306 300 300 307 311 307 307
275 279 281 285 288 289 289 290 292 294 295 297 299 300 301 304 304 303 305 309 311 315 318 321 325 328 332 332 333 334 330 327 321 320 320 311 331 311 301 298 305 310 307 307 308
274 277 281 282 282 283 284 285 286 289 291 293 294 296 299 300 300 301 305 310 311 314 317 319 324 325 327 327 329 331 324 317 313 315 320 307 324 307 306 306 311 307 307 309 311
272 275 277 279 280 281 283 285 288 287 288 291 294 296 297 296 297 299 303 306 309 311 313 313 316 319 323 323 322 324 321 310 309 311 306 325 314 320 306 310 309 309 309 311 310
273 276 277 278 278 279 281 284 286 287 289 291 292 292 293 294 294 299 302 304 304 306 308 308 313 315 317 319 318 321 318 306 307 310 308 316 319 315 313 311 311 309 307 307 310
271 272 273 275 277 278 281 284 284 286 288 289 290 288 289 294 295 301 301 302 303 306 311 310 314 312 312 313 310 316 311 306 303 308 310 311 315 308 308 310 310 311 312 311 310
270 271 271 274 277 281 283 283 285 286 285 286 285 286 288 290 292 296 297 298 301 305 306 307 309 308 309 308 306 314 307 304 299 300 302 305 308 309 309 312 312 309 310 310 309